Hourly Data Report for October 05, 2017

All times are specified in Local Standard Time (LST). Add 1 hour to adjust for Daylight Saving Time where and when it is observed.

PORT HAWKESBURY
NOVA SCOTIA

45°39'24.000" N
61°22'05.000" W
114.90 m
8204495
71041
YPD

Download Data

Hourly Data (October 2017)
Hourly Data Report for October 5, 2017
Temp Definition
°C
Dew Point Temp Definition
°C
Rel Hum Definition
%
Wind Dir Definition
10's deg

Wind Spd Definition
km/h
Visibility Definition
km
Stn Press Definition
kPa
Hmdx Definition


Wind Chill Definition


Weather Definition


TIME
00:00 Legend Double Dagger 14.1 10.4 78 24 18 16.1 99.88     LegendNANA
01:00 Legend Double Dagger 13.9 9.8 76 24 17 16.1 99.86     LegendNANA
02:00 Legend Double Dagger 12.8 9.7 82 26 17 16.1 99.80     LegendNANA
03:00 Legend Double Dagger 11.9 10.0 88 24 13 16.1 99.78     LegendNANA
04:00 Legend Double Dagger 11.5 9.9 90 25 9 16.1 99.74     LegendNANA
05:00 Legend Double Dagger 11.3 10.1 92 22 9 16.1 99.70     LegendNANA
06:00 Legend Double Dagger 12.7 11.3 91 24 8 16.1 99.64     LegendNANA
07:00 Legend Double Dagger 15.0 12.4 85   0 16.1 99.63     LegendNANA
08:00 Legend Double Dagger 15.9 13.1 83 26 15 16.1 99.66     LegendNANA
09:00 Legend Double Dagger 17.0 13.8 81 27 18 16.1 99.67     LegendNANA
10:00 Legend Double Dagger 17.8 14.0 78 28 26 16.1 99.69     LegendNANA
11:00 Legend Double Dagger 17.9 14.5 80 29 22 16.1 99.74     LegendNANA
12:00 Legend Double Dagger 18.1 14.3 78 27 21 16.1 99.74     LegendNANA
13:00 Legend Double Dagger 17.7 14.3 80 30 22 16.1 99.73     LegendNANA
14:00 Legend Double Dagger 17.2 10.4 64 31 13 12.9 99.77     LegendNANA
15:00 Legend Double Dagger 17.1 10.6 65 31 17 16.1 99.74     LegendNANA
16:00 Legend Double Dagger 16.0 10.5 69 31 11 16.1 99.78     LegendNANA
17:00 Legend Double Dagger 14.7 10.2 74 34 5 16.1 99.78     LegendNANA
18:00 Legend Double Dagger 10.9 9.0 88 8 5 16.1 99.83     LegendNANA
19:00 Legend Double Dagger 9.3 7.8 90 3 4 16.1 99.87     LegendNANA
20:00 Legend Double Dagger 8.6 7.6 93 1 5 16.1 99.93     LegendNANA
21:00 Legend Double Dagger 7.7 6.8 94 3 5 16.1 99.95     LegendNANA
22:00 Legend Double Dagger 6.2 5.6 96 1 5 16.1 99.96     LegendNANA
23:00 Legend Double Dagger 5.2 4.7 97 LegendMM 4 16.1 99.97     LegendNANA

Notes on Data Quality.

Legend

  • E = Estimated
  • M = Missing
  • NA = Not Available
  • ‡ = Partner data that is not subject to review by the National Climate Archives
Date modified: